Погода Остров Диксон

Погода Остров Диксон : погода сейчас, прогноз погоды и архив. Всё, что Вы хотите узнать о погоде Остров Диксон!

Хотите узнать прогноз погоды Остров Диксон? Тогда Вам сюда: Погода Остров Диксон

Поиск расширенной информации на нашем сайте:

Другие новости

Новости СМИ2

Главная страница сайта

Новости сайта

03.07.2017

Напоминаем, что на нашем специализированном сайте Метеоцентр.Азия вы можете получить высокодетализированные автоматические прогнозы погоды по пунктам России, СНГ и мира в авиационном формате (включающие направление и скорость ветра, видимость, явления погоды, количество и форму облачности, нижнюю и верхнюю границу облачности).


Погода Остров Диксон - сегодня

Время (UTC), дата Ветер
(°,м/с) 
Видим.   Явления Облачность Т
(°С)
Тd
(°С)
f(%) Тe
(°С)
Pmin
(гПа)
dP
(гПа)
Po
(мм)
O2
(г/м3)
Тmin Tmax R s Состояние
почвы
21 17.11.17 110 (В) 20000 м    ясно 
-25.6 -28.8 74 -33  1025.7  -0.4  764  342           
00 18.11.17 120 (ЮВ) 20000 м    ясно 
-26.3 -29.5 74 -33  1025.4  -0.3  764  343  -26.3      23  неравномерный
сухой снег
100% 
03 18.11.17 140 (ЮВ) 20000 м    ясно 
-27.1 -30.2 75 -32  1025.2  -0.2  764  344  -27.2         
06 18.11.17 130 (ЮВ) 20000 м    3/0 верхняя 
[Ci fib]
-26.8 -29.9 75 -30  1025.1  -0.1  764  343           
09 18.11.17 100 (В) 20000 м    3/0 верхняя 
[Ci fib]
-24.6 -27.4 78 -28  1025.4  0.3  764  340           
12 18.11.17 070 (В) 20000 м    3/0 верхняя 
[Ci fib]
-22.1 -25.4 75 -28  1024.4  -0.9  763  336    -21.4       
15 18.11.17 060 (СВ) 20000 м    ясно 
-24.6 -27.7 75 -30  1023.9  -0.6  763  340           
18 18.11.17 090 (В) 20000 м    ясно 
-24.4 -28.1 71 -31  1023  -0.8  762  339           
21 18.11.17 080 (В) 20000 м    ясно 
-24.5 -27.6 75 -29  1023  -0.1  762  339           
00 19.11.17 100 (В) 20000 м    ясно 
-25.1 -28.3 75 -31  1022.9  -0.1  762  340  -26.1      23  неравномерный
сухой снег
100% 
03 19.11.17 080 (В) 20000 м    ясно 
-24.8 -28.1 74 -32  1022.9  762  340           
06 19.11.17 080 (В) 20000 м    3/0 верхняя 
[Ci fib]
-24.4 -27.7 74 -32  1023.1  0.3  762  339           
09 19.11.17 070 (В) 20000 м    4/0 верхняя 
[Ci fib]
-24.1 -27.2 75 -29  1024  0.9  763  339           
12 19.11.17 060 (СВ) 20000 м    4/0 верхняя 
[Ci fib]
-18.3 -20.9 80 -22  1023.7  -0.2  763  331    -18.3       
15 19.11.17 тихо ()   10 км  слаб. снег  10/0 средняя 
[As op]
-16.8 -19.2 82 -17  1023  -0.6  763  329           
18 19.11.17 200 (Ю) 20000 м  {снег}  9/0 средняя 
[Ac und]
-15.6 -17.9 82 -18  1022.4  -0.6  762  327           
21 19.11.17 110 (В) 10 км  слаб. снег  10/0 средняя 
[As op]
-16.8 -18.9 84 -24  1023.1  0.7  763  329           
00 20.11.17 080 (В) 10 км  слаб. снег  10/0 средняя 
[As op]
-19.3 -22.3 77 -26  1024.7  1.5  764  333  -19.3    0.3  24  неравномерный
сухой снег
100% 
03 20.11.17 080 (В) 6{11}  10 км  слаб. снег  10/0 средняя 
[As op]
-18.1 -21.1 77 -25  1025.2  0.5  764  331           
06 20.11.17 060 (СВ) 7{11}  20000 м  позёмок{снег}  4/0 средняя, верхняя 
[Ac trans|Ci fib]
-21 -23.6 80 -29  1025.7  0.5  764  335           
09 20.11.17 060 (СВ) 8-10{12}  20000 м  позёмок  4/0 верхняя 
[Ci fib]
-22.3 -24.9 79 -31  1027.4  1.6  766  338           
12 20.11.17 060 (СВ) 8-10{11}  20000 м  позёмок  4/0 верхняя 
[Ci fib]
-21.7 -24 82 -31  1028.7  1.3  767  337    -18  0.0     
15 20.11.17 060 (СВ) 7{12}  20000 м  позёмок  4/0 верхняя 
[Ci fib]
-22.3 -24.8 80 -31  1029.7  767  338           
18 20.11.17 060 (СВ) 8{10}  20000 м  позёмок  3/0 верхняя 
[Ci fib]
-21.2 -23.9 79 -30  1030.2  0.6  768  337           
21 20.11.17 050 (СВ) 20000 м  позёмок  ясно 
-22.6 -25.1 80 -30  1031.2  0.9  769  339           
Время (UTC), дата Ветер
(°,м/с) 
Видим.   Явления Облачность Т
(°С)
Тd
(°С)
f(%) Тe
(°С)
Pmin
(гПа)
dP
(гПа)
Po
(мм)
O2
(г/м3)
Тmin Tmax R s Состояние
почвы

Для получения пояснительной информации подведите курсор к названию столбца.

ПОГОДА Остров Диксон - архив

Всё, что Вы хотите узнать о погоде Остров Диксон - удобно и подробно!

Выберите нужную дату (начиная с 1 января 2015* года) и нажмите кнопку "Найти".
Будут отображены архивные сводки погоды по пункту Остров Диксон, начиная с указанной даты.


Отображать данные в формате CSV (для использования в таблицах Excel)


Внимание! Наш архив погоды предназначен исключительно для личного некоммерческого использования в познавательных целях. Если Вам необходимы официальные справки о состоянии погоды (для производственных, юридических, коммерческих и т.п. целей), обращайтесь в органы Росгидромета.

*Примечание: данная дата относится к архиву по метеостанциям СССР (Россия, СНГ, Балтия).
Архив по метеостанциям Зарубежной Европы и Азии (кроме Китая) хранится 10 дней, по другим регионам земного шара (Китай, Африка, Америка, Австралия, Океания) - 1 день.

Остров Диксон - район местоположения метеостанции


Название, широта, долгота, высота метеостанции:
Остров Диксон 73.5°ш. 80.4°д. 47 м над ур. моря [Российская Федерация]

Дополнительная информация

В oтличие oт бoльшинства пoгoдных сайтoв мы публикуем пoдрoбную метеoинфoрмацию в детальнoм прoфессиoнальнoм фoрмате.

Характеристики температуры и влажнoсти вoздуха измеряются на высoте 2 м в тени вдали oт зданий и деревьев.
Скoрoсть ветра измеряется на высoте 10 м (на урoвне рoста челoвека скoрoсть ветра ниже в 1.5-2 раза). Если метеoстанция нахoдится в гoрoде или в лесу, тo скoрoсть ветра занижена на 2-4 м/с пo сравнению с oткрытым местoм. Скoрoсть ветра над акватoриями крупных рек и oзёр, а также на вершинах хoлмoв на 2-5 м/с выше, чем в oбычных услoвиях.
Атмoсфернoе давление в разных тoчках местнoсти мoжет значительнo oтличаться oт давления на метеoстанции, в зависимoсти oт услoвий рельефа (при пoдъёме на 10 м давление пoнижается примернo на 1 мм рт.ст.).